| time (UTC) | temp F | wind direction | speed MPH | gust MPH | rain 1hr in | rain 24hr in | rain mn in | humidity % | barometer mb |
| 20260510163102 | 64 | 167 | 7.0 | 14.0 | 0.00 | 0.00 | 0.00 | 42 | 1016.9 |
| 20260510161551 | 62 | 164 | 8.0 | 11.0 | 0.00 | 0.00 | 0.00 | 44 | 1017.0 |
| 20260510160052 | 59 | 184 | 5.0 | 10.0 | 0.00 | 0.00 | 0.00 | 50 | 1017.1 |
| 20260510154543 | 57 | 182 | 7.0 | 10.0 | 0.00 | 0.00 | 0.00 | 53 | 1017.4 |
| 20260510153046 | 56 | 175 | 7.0 | 11.0 | 0.00 | 0.00 | 0.00 | 55 | 1017.7 |
| 20260510151536 | 55 | 158 | 7.0 | 10.0 | 0.00 | 0.00 | 0.00 | 59 | 1017.6 |
| 20260510150033 | 53 | 153 | 6.0 | 9.0 | 0.00 | 0.00 | 0.00 | 63 | 1017.8 |
| 20260510144541 | 51 | 186 | 4.0 | 6.0 | 0.00 | 0.00 | 0.00 | 67 | 1017.8 |
| 20260510143022 | 49 | 163 | 0.0 | 6.0 | 0.00 | 0.00 | 0.00 | 71 | 1017.8 |
| 20260510141518 | 47 | 163 | 1.0 | 5.0 | 0.00 | 0.00 | 0.00 | 73 | 1018.0 |
| 20260510140014 | 45 | 163 | 2.0 | 3.0 | 0.00 | 0.00 | 0.00 | 77 | 1018.0 |
| 20260510134511 | 43 | 302 | 0.0 | 2.0 | 0.00 | 0.00 | 0.00 | 81 | 1018.0 |
| 20260510133011 | 40 | 302 | 0.0 | 1.0 | 0.00 | 0.00 | 0.00 | 85 | 1018.1 |
| 20260510131505 | 38 | 302 | 1.0 | 3.0 | 0.00 | 0.00 | 0.00 | 86 | 1018.1 |
| 20260510130002 | 36 | 302 | 1.0 | 3.0 | 0.00 | 0.00 | 0.00 | 87 | 1018.2 |
| 20260510124613 | 34 | 302 | 1.0 | 3.0 | 0.00 | 0.00 | 0.00 | 87 | 1018.1 |
| 20260510123056 | 34 | 302 | 1.0 | 3.0 | 0.00 | 0.00 | 0.00 | 87 | 1018.1 |
| 20260510121555 | 34 | 302 | 2.0 | 3.0 | 0.00 | 0.00 | 0.00 | 87 | 1018.2 |
| 20260510120049 | 34 | 302 | 2.0 | 4.0 | 0.00 | 0.00 | 0.00 | 86 | 1018.3 |
| 20260510114601 | 34 | 302 | 2.0 | 3.0 | 0.00 | 0.00 | 0.00 | 86 | 1018.3 |
| 20260510113047 | 34 | 302 | 2.0 | 4.0 | 0.00 | 0.00 | 0.00 | 86 | 1018.4 |
| 20260510111544 | 34 | 302 | 2.0 | 4.0 | 0.00 | 0.00 | 0.00 | 85 | 1018.4 |
| 20260510110042 | 35 | 302 | 2.0 | 4.0 | 0.00 | 0.00 | 0.00 | 85 | 1018.4 |
| 20260510104540 | 35 | 302 | 2.0 | 3.0 | 0.00 | 0.00 | 0.00 | 85 | 1018.4 |
| 20260510103043 | 36 | 302 | 2.0 | 4.0 | 0.00 | 0.00 | 0.00 | 84 | 1018.5 |
| 20260510101535 | 37 | 302 | 1.0 | 3.0 | 0.00 | 0.00 | 0.00 | 84 | 1018.5 |
| 20260510100039 | 36 | 302 | 1.0 | 3.0 | 0.00 | 0.00 | 0.00 | 83 | 1018.6 |
| 20260510094536 | 37 | 302 | 0.0 | 4.0 | 0.00 | 0.00 | 0.00 | 82 | 1018.6 |
| 20260510093029 | 37 | 302 | 2.0 | 5.0 | 0.00 | 0.00 | 0.00 | 82 | 1018.6 |
| 20260510091525 | 38 | 303 | 2.0 | 3.0 | 0.00 | 0.00 | 0.00 | 81 | 1018.6 |
| 20260510090022 | 39 | 303 | 2.0 | 3.0 | 0.00 | 0.00 | 0.00 | 81 | 1018.5 |
| 20260510084518 | 40 | 298 | 2.0 | 4.0 | 0.00 | 0.00 | 0.00 | 79 | 1018.8 |
| 20260510083023 | 41 | 317 | 2.0 | 4.0 | 0.00 | 0.00 | 0.00 | 78 | 1018.8 |
| 20260510081518 | 42 | 287 | 3.0 | 4.0 | 0.00 | 0.00 | 0.00 | 76 | 1018.8 |
| 20260510080013 | 43 | 329 | 2.0 | 4.0 | 0.00 | 0.00 | 0.00 | 75 | 1018.8 |
| 20260510074511 | 44 | 329 | 2.0 | 4.0 | 0.00 | 0.00 | 0.00 | 74 | 1018.8 |
| 20260510073011 | 45 | 309 | 1.0 | 3.0 | 0.00 | 0.00 | 0.00 | 75 | 1018.9 |
| 20260510071508 | 44 | 309 | 1.0 | 3.0 | 0.00 | 0.00 | 0.00 | 77 | 1018.9 |
| 20260510070014 | 43 | 309 | 1.0 | 3.0 | 0.00 | 0.00 | 0.00 | 75 | 1018.9 |
| 20260510064506 | 43 | 5 | 1.0 | 3.0 | 0.00 | 0.00 | 0.00 | 75 | 1018.9 |
| 20260510063004 | 42 | 10 | 4.0 | 6.0 | 0.00 | 0.00 | 0.00 | 78 | 1019.0 |
| 20260510061502 | 42 | 346 | 1.0 | 4.0 | 0.00 | 0.00 | 0.00 | 76 | 1018.9 |
| 20260510060100 | 43 | 346 | 2.0 | 3.0 | 0.00 | 0.00 | 0.00 | 75 | 1018.9 |
| 20260510054557 | 43 | 346 | 2.0 | 3.0 | 0.00 | 0.00 | 0.00 | 76 | 1018.8 |
| 20260510053054 | 44 | 66 | 1.0 | 2.0 | 0.00 | 0.00 | 0.00 | 71 | 1018.8 |
| 20260510051559 | 45 | 66 | 1.0 | 2.0 | 0.00 | 0.00 | 0.00 | 72 | 1018.8 |
| 20260510050052 | 46 | 66 | 0.0 | 0.0 | 0.00 | 0.00 | 0.00 | 70 | 1018.8 |
| 20260510044544 | 47 | 66 | 0.0 | 2.0 | 0.00 | 0.00 | 0.00 | 68 | 1018.9 |
| 20260510043047 | 48 | 65 | 3.0 | 4.0 | 0.00 | 0.00 | 0.00 | 66 | 1018.8 |
| 20260510041557 | 49 | 179 | 0.0 | 2.0 | 0.00 | 0.00 | 0.00 | 66 | 1018.6 |
| 20260510040042 | 50 | 179 | 0.0 | 4.0 | 0.00 | 0.00 | 0.00 | 64 | 1018.6 |
| 20260510034536 | 51 | 168 | 2.0 | 5.0 | 0.00 | 0.00 | 0.00 | 63 | 1018.4 |
| 20260510033035 | 52 | 89 | 1.0 | 6.0 | 0.00 | 0.00 | 0.00 | 60 | 1018.3 |
| 20260510031533 | 54 | 80 | 5.0 | 9.0 | 0.00 | 0.00 | 0.00 | 58 | 1018.1 |
| 20260510030033 | 55 | 82 | 5.0 | 8.0 | 0.00 | 0.00 | 0.00 | 52 | 1017.8 |
| 20260510024532 | 57 | 188 | 0.0 | 2.0 | 0.00 | 0.00 | 0.00 | 51 | 1017.7 |
| 20260510023133 | 59 | 192 | 0.0 | 2.0 | 0.00 | 0.00 | 0.00 | 49 | 1017.6 |
| 20260510021533 | 61 | 217 | 2.0 | 4.0 | 0.00 | 0.00 | 0.00 | 48 | 1017.5 |
| 20260510020030 | 62 | 217 | 3.0 | 4.0 | 0.00 | 0.00 | 0.00 | 46 | 1017.6 |
| 20260510014530 | 63 | 217 | 2.0 | 4.0 | 0.00 | 0.00 | 0.00 | 45 | 1017.5 |
| 20260510013029 | 64 | 217 | 2.0 | 5.0 | 0.00 | 0.00 | 0.00 | 42 | 1017.6 |
| 20260510011535 | 65 | 224 | 4.0 | 8.0 | 0.00 | 0.00 | 0.00 | 41 | 1017.6 |
| 20260510010036 | 65 | 165 | 4.0 | 7.0 | 0.00 | 0.00 | 0.00 | 41 | 1017.6 |
| 20260510004526 | 65 | 226 | 4.0 | 8.0 | 0.00 | 0.00 | 0.00 | 42 | 1017.6 |
| 20260510003026 | 64 | 238 | 4.0 | 8.0 | 0.00 | 0.00 | 0.00 | 41 | 1017.7 |
| 20260510001527 | 64 | 235 | 4.0 | 9.0 | 0.00 | 0.00 | 0.00 | 42 | 1017.7 |
| 20260510000025 | 64 | 203 | 6.0 | 11.0 | 0.00 | 0.00 | 0.00 | 42 | 1017.6 |
| 20260509234526 | 64 | 210 | 8.0 | 15.0 | 0.00 | 0.00 | 0.00 | 41 | 1017.6 |
| 20260509233023 | 65 | 241 | 3.0 | 10.0 | 0.00 | 0.00 | 0.00 | 40 | 1017.4 |
| 20260509231530 | 65 | 188 | 4.0 | 8.0 | 0.00 | 0.00 | 0.00 | 40 | 1017.5 |
| 20260509230026 | 65 | 283 | 2.0 | 8.0 | 0.00 | 0.00 | 0.00 | 39 | 1017.6 |
| 20260509224521 | 65 | 229 | 2.0 | 8.0 | 0.00 | 0.00 | 0.00 | 38 | 1017.6 |
| 20260509223022 | 65 | 292 | 1.0 | 4.0 | 0.00 | 0.00 | 0.00 | 38 | 1017.6 |
| 20260509221530 | 65 | 293 | 2.0 | 8.0 | 0.00 | 0.00 | 0.00 | 38 | 1017.8 |
| 20260509220021 | 64 | 323 | 1.0 | 8.0 | 0.00 | 0.00 | 0.00 | 40 | 1017.9 |
| 20260509214518 | 64 | 275 | 2.0 | 6.0 | 0.00 | 0.00 | 0.00 | 40 | 1017.9 |
| 20260509213018 | 64 | 279 | 1.0 | 10.0 | 0.00 | 0.00 | 0.00 | 39 | 1018.1 |
| 20260509211516 | 64 | 239 | 2.0 | 9.0 | 0.00 | 0.00 | 0.00 | 39 | 1018.1 |
| 20260509210017 | 63 | 190 | 7.0 | 10.0 | 0.00 | 0.00 | 0.00 | 41 | 1018.2 |
| 20260509204515 | 63 | 213 | 5.0 | 9.0 | 0.00 | 0.00 | 0.00 | 40 | 1018.2 |
| 20260509203014 | 63 | 288 | 1.0 | 7.0 | 0.00 | 0.00 | 0.00 | 39 | 1018.1 |
| 20260509201514 | 64 | 248 | 4.0 | 9.0 | 0.00 | 0.00 | 0.00 | 38 | 1018.0 |
| 20260509200013 | 64 | 303 | 3.0 | 11.0 | 0.00 | 0.00 | 0.00 | 37 | 1017.9 |
| 20260509194516 | 63 | 218 | 6.0 | 10.0 | 0.00 | 0.00 | 0.00 | 38 | 1017.9 |
| 20260509193012 | 64 | 236 | 6.0 | 11.0 | 0.00 | 0.00 | 0.00 | 38 | 1018.1 |
| 20260509191509 | 63 | 163 | 4.0 | 7.0 | 0.00 | 0.00 | 0.00 | 39 | 1018.1 |
| 20260509190009 | 62 | 196 | 6.0 | 10.0 | 0.00 | 0.00 | 0.00 | 39 | 1018.2 |
| 20260509184521 | 63 | 246 | 6.0 | 10.0 | 0.00 | 0.00 | 0.00 | 38 | 1018.1 |
| 20260509183008 | 61 | 198 | 1.0 | 8.0 | 0.00 | 0.00 | 0.00 | 39 | 1018.2 |
| 20260509181506 | 62 | 151 | 5.0 | 10.0 | 0.00 | 0.00 | 0.00 | 39 | 1018.1 |
| 20260509180004 | 64 | 254 | 2.0 | 8.0 | 0.00 | 0.00 | 0.00 | 37 | 1017.9 |
| 20260509174502 | 63 | 214 | 4.0 | 7.0 | 0.00 | 0.00 | 0.00 | 38 | 1017.9 |
| 20260509173109 | 62 | 115 | 3.0 | 5.0 | 0.00 | 0.00 | 0.00 | 41 | 1017.9 |
| 20260509171608 | 61 | 53 | 5.0 | 8.0 | 0.00 | 0.00 | 0.00 | 40 | 1017.9 |
| 20260509170052 | 61 | 355 | 4.0 | 8.0 | 0.00 | 0.00 | 0.00 | 40 | 1017.8 |
| 20260509164553 | 61 | 350 | 5.0 | 10.0 | 0.00 | 0.00 | 0.00 | 39 | 1017.8 |